Location: Church Tower
(37.7144°N, 119.6316°W)
Time: 20:38:46
(UTC+00:00)

Cosmos 1464 Rocket - Pass Details

Date: 15 November 2025
Orbit: 950 x 1001 km, 82.9° (Epoch: 08 December)

Event Time Altitude Azimuth Distance (km) Brightness Sun altitude
Rises 13:22:46 0° 356° (N) 3,642 6.8 -15.2°
Reaches altitude 10° 13:25:18 10° 360° (N) 2,688 6.2 -14.7°
Maximum altitude 13:31:23 64° 81° (E) 1,048 4.4 -13.5°
Drops below altitude 10° 13:37:25 10° 163° (SSE) 2,666 6.7 -12.4°
Sets 13:39:56 0° 166° (SSE) 3,610 7.4 -11.9°
